Regional Weather Roundup
Issued by NWS

Home | Current Version | Previous Version | Text Only | Print | Product List | Glossary On
Versions: 1 2 3 4 5 6 7 8 9 10 11 12 13 14 15 16 17 18 19 20 21 22 23 24 25 26 27 28 29 30 31 32 33 34 35 36 37 38 39 40 41 42 43 44 45 46 47 48 49 50
000
ASUS43 KFSD 230710
RWRSD

WEATHER ROUNDUP FOR SOUTH DAKOTA
NATIONAL WEATHER SERVICE SIOUX FALLS SD
200 AM CDT MON OCT 23 2017

NOTE: "FAIR" INDICATES FEW OR NO CLOUDS BELOW 12,000 FEET WITH NO
SIGNIFICANT WEATHER AND/OR OBSTRUCTIONS TO VISIBILITY.


SDZ001>005-009-010-012>017-230800-
NORTHWEST AND NORTH CENTRAL SOUTH DAKOTA

CITY           SKY/WX    TMP DP  RH WIND       PRES   REMARKS
BUFFALO          N/A     47  31  53 NW24      29.93R
MOBRIDGE       CLEAR     51  42  71 W12       29.83R
$$

SDZ012>016-024>037-041>051-057-063-072>074-230800-
SOUTHWEST AND SOUTH CENTRAL SOUTH DAKOTA

CITY           SKY/WX    TMP DP  RH WIND       PRES   REMARKS
RAPID CTY ARPT CLOUDY    54  23  30 NW33G43   30.03R
PIERRE         CLOUDY    54  45  71 W13       29.90R
CUSTER         LGT RAIN  39  30  70 VRB7G21   30.11R
ELLSWORTH AFB  CLOUDY    54  23  30 NW28G36   30.04R
PHILIP         CLOUDY    54  41  61 NW12      29.96R
PINE RIDGE     CLOUDY    56  34  43 NW17G28   30.05R
SPEARFISH      CLOUDY    52  21  30 NW20G33   30.08R
WINNER         PTSUNNY   56  42  59 NW15      29.94R
$$

SDZ004>011-016>023-039-040-230800-
NORTHEAST SOUTH DAKOTA

CITY           SKY/WX    TMP DP  RH WIND       PRES   REMARKS
ABERDEEN       PTCLDY    52  46  80 W13       29.78R
WATERTOWN      MOCLDY    52  38  58 W7        29.78S
BROOKINGS      CLOUDY    51  35  54 S8        29.81S
SISSETON         N/A     60  45  57 W18G43    29.71F
$$

SDZ017-020-022-023-036>040-048>070-230800-
SOUTHEAST SOUTH DAKOTA

CITY           SKY/WX    TMP DP  RH WIND       PRES   REMARKS
SIOUX FALLS    CLEAR     52  35  52 SW5       29.80F
HURON          CLOUDY    53  40  61 NW12      29.83R
CHAMBERLAIN    MOCLDY    56  42  60 NW8       29.91R
MITCHELL       PTCLDY    48  37  65 W7        29.84R
YANKTON        PTCLDY    56  32  40 S7        29.81F
$$

ABBREVIATIONS USED IN REMARKS
   TC - TEMPERATURE IN CELSIUS
  WCI - WIND CHILL INDEX
   HX - HEAT INDEX
  VSB - VISIBILITY




USA.gov is the U.S. government's official web portal to all federal, state and local government web resources and services.